This demonstration page uses our WeatherBlox Daily Observations layout. Learn more.

Left ArrowRight Arrow

Hourly Observations for February 17, 2020

Temp ( °F °C ) Dew Point ( °F °C ) Humidity (%) Winds ( mph kmh ) Pressure ( in mb ) Visibility ( mi km ) Precip ( " mm )
12:59 am 00:59 Cloudy 48 8.9 39 3.9 71 71 SSW 5 7 30.11 1020 10 16 0.00 0.00
1:59 am 01:59 Cloudy 48 8.9 41 5 77 77 SW 5 7 30.10 1019 10 16 0.00 0.00
2:59 am 02:59 Cloudy 47 8.3 41 5 80 80 WSW 5 7 30.10 1019 10 16 0.00 0.00
3:59 am 03:59 Cloudy 46 7.8 41 5 83 83 Calm 30.10 1019 10 16 0.00 0.00
4:59 am 04:59 Mostly Cloudy 43 6.1 40 4.4 89 89 Calm 30.11 1020 10 16 0.00 0.00
5:59 am 05:59 Partly Cloudy 42 5.6 39 3.9 89 89 Calm 30.15 1021 8 13 0.00 0.00
6:59 am 06:59 Partly Cloudy with Mist and Fog 41 5 39 3.9 93 93 Calm 30.17 1022 6 10 0.00 0.00
7:59 am 07:59 Partly Cloudy 46 7.8 42 5.6 86 86 NNW 6 9 30.21 1023 7 11 0.00 0.00
8:59 am 08:59 Partly Cloudy 49 9.4 40 4.4 71 71 NNE 16 26 30.23 1024 10 16 0.00 0.00
9:59 am 09:59 Partly Cloudy 50 10 41 5 71 71 NE 12 19 30.22 1024 10 16 0.00 0.00
10:59 am 10:59 Partly Cloudy 51 10.6 37 2.8 59 59 NE 13 20 30.25 1024 10 16 0.00 0.00
11:59 am 11:59 Mostly Cloudy 51 10.6 40 4.4 66 66 NNE 10 17 30.25 1024 8 13 0.00 0.00
12:59 pm 12:59 Partly Cloudy 51 10.6 39 3.9 64 64 N 10 17 30.26 1025 8 13 0.00 0.00
1:59 pm 13:59 Partly Cloudy 52 11.1 38 3.3 59 59 NNE 12 19 30.25 1024 8 13 0.00 0.00
2:59 pm 14:59 Partly Cloudy 52 11.1 37 2.8 57 57 NNE 10 17 30.25 1025 8 13 0.00 0.00
3:59 pm 15:59 Partly Cloudy 49 9.4 37 2.8 64 64 NE 12 19 30.25 1024 8 13 0.00 0.00
4:59 pm 16:59 Mostly Cloudy 48 8.9 38 3.3 68 68 ENE 8 13 30.25 1024 8 13 0.00 0.00
5:59 pm 17:59 Mostly Cloudy 46 7.8 39 3.9 77 77 ENE 6 9 30.27 1025 8 13 0.00 0.00
6:59 pm 18:59 Partly Cloudy 46 7.8 39 3.9 77 77 ENE 6 9 30.29 1026 9 14 0.00 0.00
7:59 pm 19:59 Mostly Clear 45 7.2 39 3.9 80 80 NE 6 9 30.30 1026 9 14 0.00 0.00
8:59 pm 20:59 Partly Cloudy 45 7.2 41 5 86 86 NE 8 13 30.30 1026 8 13 0.00 0.00
9:59 pm 21:59 Partly Cloudy 45 7.2 42 5.6 90 90 ENE 6 9 30.31 1026 7 11 0.00 0.00
10:59 pm 22:59 Partly Cloudy with Mist and Fog 45 7.2 42 5.6 90 90 ENE 6 9 30.29 1026 6 10 0.00 0.00
11:59 pm 23:59 Partly Cloudy with Mist and Fog 43 6.1 41 5 93 93 Calm 30.29 1026 5 8 0.00 0.00

Powered by AerisWeather